Time,TemperatureF,DewpointF,PressureIn,WindDirection,WindDirectionDegrees,WindSpeedMPH,WindSpeedGustMPH,Humidity,HourlyPrecipIn,Conditions,Clouds,dailyrainin,SoftwareType,DateUTC
2013-02-04 00:00:00,44.8,42.3,30.08,NNW,346,0.0,0.0,91,0.00,,,0.00,Wunderground v.1.15,2013-02-04 06:00:00,
2013-02-04 00:10:00,44.2,41.7,30.08,NNW,346,0.0,0.0,91,0.00,,,0.00,Wunderground v.1.15,2013-02-04 06:10:00,
2013-02-04 00:15:00,44.1,41.6,30.07,NNW,346,0.0,0.0,91,0.00,,,0.00,Wunderground v.1.15,2013-02-04 06:15:00,
2013-02-04 00:20:00,43.8,41.3,30.07,NNW,346,0.0,0.0,91,0.00,,,0.00,Wunderground v.1.15,2013-02-04 06:20:00,
2013-02-04 00:25:00,43.6,41.1,30.07,NNW,346,0.0,0.0,91,0.00,,,0.00,Wunderground v.1.15,2013-02-04 06:25:00,
2013-02-04 00:30:00,43.3,40.8,30.07,NNW,346,0.0,0.0,91,0.00,,,0.00,Wunderground v.1.15,2013-02-04 06:30:00,
2013-02-04 00:40:00,42.9,40.7,30.07,NNW,346,0.0,0.0,92,0.00,,,0.00,Wunderground v.1.15,2013-02-04 06:40:00,
2013-02-04 00:45:00,42.8,40.6,30.07,NNW,346,0.0,0.0,92,0.00,,,0.00,Wunderground v.1.15,2013-02-04 06:45:00,
2013-02-04 00:55:00,42.5,40.3,30.07,NNW,346,0.0,0.0,92,0.00,,,0.00,Wunderground v.1.15,2013-02-04 06:55:00,
2013-02-04 01:00:00,42.2,40.0,30.06,NNW,346,0.0,0.0,92,0.00,,,0.00,Wunderground v.1.15,2013-02-04 07:00:00,
2013-02-04 01:10:00,41.9,39.7,30.06,NNW,346,0.0,0.0,92,0.00,,,0.00,Wunderground v.1.15,2013-02-04 07:10:00,
2013-02-04 01:15:00,41.8,39.6,30.06,NNW,346,0.0,0.0,92,0.00,,,0.00,Wunderground v.1.15,2013-02-04 07:15:00,
2013-02-04 01:25:00,41.9,39.7,30.06,NNW,346,0.0,0.0,92,0.00,,,0.00,Wunderground v.1.15,2013-02-04 07:25:00,
2013-02-04 01:30:00,41.9,39.7,30.06,NNW,346,0.0,0.0,92,0.00,,,0.00,Wunderground v.1.15,2013-02-04 07:30:00,
2013-02-04 01:40:00,41.9,39.7,30.06,NNW,347,0.0,0.0,92,0.00,,,0.00,Wunderground v.1.15,2013-02-04 07:40:00,
2013-02-04 01:45:00,41.9,39.7,30.05,NNW,347,0.0,0.0,92,0.00,,,0.00,Wunderground v.1.15,2013-02-04 07:45:00,
2013-02-04 01:55:00,41.9,39.5,30.05,NNW,347,0.0,0.0,91,0.00,,,0.00,Wunderground v.1.15,2013-02-04 07:55:00,
2013-02-04 02:05:00,41.9,38.9,30.05,NNW,347,0.0,0.0,89,0.00,,,0.00,Wunderground v.1.15,2013-02-04 08:05:00,
2013-02-04 02:10:00,41.9,38.9,30.05,NNW,347,0.0,0.0,89,0.00,,,0.00,Wunderground v.1.15,2013-02-04 08:10:00,
2013-02-04 02:15:00,42.1,38.5,30.05,North,353,0.0,0.0,87,0.00,,,0.00,Wunderground v.1.15,2013-02-04 08:15:00,
2013-02-04 02:25:00,42.3,38.7,30.05,North,353,0.0,0.0,87,0.00,,,0.00,Wunderground v.1.15,2013-02-04 08:25:00,
2013-02-04 02:30:00,42.3,38.7,30.05,North,353,0.0,0.0,87,0.00,,,0.00,Wunderground v.1.15,2013-02-04 08:30:00,
2013-02-04 02:40:00,42.2,38.3,30.05,North,353,0.0,0.0,86,0.00,,,0.00,Wunderground v.1.15,2013-02-04 08:40:00,
2013-02-04 02:50:00,41.8,37.9,30.04,North,353,0.0,0.0,86,0.00,,,0.00,Wunderground v.1.15,2013-02-04 08:50:00,
2013-02-04 02:55:00,41.6,37.7,30.04,North,353,0.0,0.0,86,0.00,,,0.00,Wunderground v.1.15,2013-02-04 08:55:00,
2013-02-04 03:05:00,41.6,37.4,30.04,North,353,0.0,0.0,85,0.00,,,0.00,Wunderground v.1.15,2013-02-04 09:05:00,
2013-02-04 03:20:00,42.1,37.9,30.04,North,353,0.0,0.0,85,0.00,,,0.00,Wunderground v.1.15,2013-02-04 09:20:00,
2013-02-04 03:30:00,42.2,38.0,30.04,North,353,0.0,0.0,85,0.00,,,0.00,Wunderground v.1.15,2013-02-04 09:30:00,
2013-02-04 03:40:00,42.5,38.0,30.04,North,353,0.0,0.0,84,0.00,,,0.00,Wunderground v.1.15,2013-02-04 09:40:00,
2013-02-04 03:45:00,42.6,38.1,30.04,North,353,0.0,0.0,84,0.00,,,0.00,Wunderground v.1.15,2013-02-04 09:45:00,
2013-02-04 03:55:00,42.9,38.1,30.04,North,353,0.0,0.0,83,0.00,,,0.00,Wunderground v.1.15,2013-02-04 09:55:00,
2013-02-04 04:00:00,42.9,38.1,30.04,North,353,0.0,0.0,83,0.00,,,0.00,Wunderground v.1.15,2013-02-04 10:00:00,
2013-02-04 04:10:00,43.2,38.1,30.04,North,353,0.0,0.0,82,0.00,,,0.00,Wunderground v.1.15,2013-02-04 10:10:00,
2013-02-04 04:20:00,43.2,38.1,30.04,North,353,0.0,0.0,82,0.00,,,0.00,Wunderground v.1.15,2013-02-04 10:20:00,
2013-02-04 04:30:00,43.2,38.1,30.04,North,353,0.0,0.0,82,0.00,,,0.00,Wunderground v.1.15,2013-02-04 10:30:00,
2013-02-04 04:40:00,43.1,38.0,30.04,North,353,0.0,0.0,82,0.00,,,0.00,Wunderground v.1.15,2013-02-04 10:40:00,
2013-02-04 04:45:00,42.9,37.8,30.04,North,353,0.0,0.0,82,0.00,,,0.00,Wunderground v.1.15,2013-02-04 10:45:00,
2013-02-04 04:55:00,42.6,37.5,30.04,North,353,0.0,0.0,82,0.00,,,0.00,Wunderground v.1.15,2013-02-04 10:55:00,
2013-02-04 05:00:00,42.5,37.4,30.03,North,353,0.0,0.0,82,0.00,,,0.00,Wunderground v.1.15,2013-02-04 11:00:00,
2013-02-04 05:10:00,42.2,37.4,30.03,North,353,0.0,0.0,83,0.00,,,0.00,Wunderground v.1.15,2013-02-04 11:10:00,
2013-02-04 05:15:00,42.1,37.3,30.03,North,353,0.0,0.0,83,0.00,,,0.00,Wunderground v.1.15,2013-02-04 11:15:00,
2013-02-04 05:25:00,42.1,37.6,30.03,North,353,0.0,0.0,84,0.00,,,0.00,Wunderground v.1.15,2013-02-04 11:25:00,
2013-02-04 05:30:00,41.9,37.4,30.04,North,353,0.0,0.0,84,0.00,,,0.00,Wunderground v.1.15,2013-02-04 11:30:00,
2013-02-04 05:40:00,41.9,37.4,30.04,North,353,0.0,0.0,84,0.00,,,0.00,Wunderground v.1.15,2013-02-04 11:40:00,
2013-02-04 05:45:00,42.1,37.9,30.03,North,353,0.0,0.0,85,0.00,,,0.00,Wunderground v.1.15,2013-02-04 11:45:00,
2013-02-04 05:55:00,42.1,37.3,30.03,North,353,0.0,0.0,83,0.00,,,0.00,Wunderground v.1.15,2013-02-04 11:55:00,
2013-02-04 06:05:00,42.2,37.4,30.04,North,353,0.0,0.0,83,0.00,,,0.00,Wunderground v.1.15,2013-02-04 12:05:00,
2013-02-04 06:10:00,42.3,37.2,30.04,North,353,0.0,0.0,82,0.00,,,0.00,Wunderground v.1.15,2013-02-04 12:10:00,
2013-02-04 06:15:00,42.6,37.8,30.04,NE,35,0.0,0.0,83,0.00,,,0.00,Wunderground v.1.15,2013-02-04 12:15:00,
2013-02-04 06:25:00,42.8,38.0,30.04,NE,35,0.0,0.0,83,0.00,,,0.00,Wunderground v.1.15,2013-02-04 12:25:00,
2013-02-04 06:30:00,42.8,37.7,30.05,NE,35,0.0,0.0,82,0.00,,,0.00,Wunderground v.1.15,2013-02-04 12:30:00,
2013-02-04 06:40:00,42.8,37.7,30.05,NE,35,0.0,0.0,82,0.00,,,0.00,Wunderground v.1.15,2013-02-04 12:40:00,
2013-02-04 06:45:00,42.8,37.7,30.06,NE,35,0.0,0.0,82,0.00,,,0.00,Wunderground v.1.15,2013-02-04 12:45:00,
2013-02-04 06:55:00,42.8,37.4,30.06,NE,35,0.0,0.0,81,0.00,,,0.00,Wunderground v.1.15,2013-02-04 12:55:00,
2013-02-04 07:05:00,42.8,37.7,30.05,NE,35,0.0,0.0,82,0.00,,,0.00,Wunderground v.1.15,2013-02-04 13:05:00,
2013-02-04 07:10:00,42.9,37.8,30.05,NE,35,0.0,0.0,82,0.00,,,0.00,Wunderground v.1.15,2013-02-04 13:10:00,
2013-02-04 07:16:00,43.1,38.0,30.06,NE,35,0.0,0.0,82,0.00,,,0.00,Wunderground v.1.15,2013-02-04 13:16:00,
2013-02-04 07:25:00,43.6,38.8,30.06,NE,35,0.0,0.0,83,0.00,,,0.00,Wunderground v.1.15,2013-02-04 13:25:00,
2013-02-04 07:30:00,44.1,39.0,30.05,NE,35,0.0,0.0,82,0.00,,,0.00,Wunderground v.1.15,2013-02-04 13:30:00,
2013-02-04 07:40:00,44.8,38.0,30.05,SE,141,0.0,0.0,77,0.00,,,0.00,Wunderground v.1.15,2013-02-04 13:40:00,
2013-02-04 07:46:00,45.5,37.0,30.04,East,93,0.0,0.0,72,0.00,,,0.00,Wunderground v.1.15,2013-02-04 13:46:00,
2013-02-04 07:55:00,46.4,36.8,30.04,East,92,0.0,0.0,69,0.00,,,0.00,Wunderground v.1.15,2013-02-04 13:55:00,
2013-02-04 08:00:00,46.7,37.1,30.05,East,92,0.0,0.0,69,0.00,,,0.00,Wunderground v.1.15,2013-02-04 14:00:00,
2013-02-04 08:10:00,47.1,37.1,30.05,East,92,0.0,0.0,68,0.00,,,0.00,Wunderground v.1.15,2013-02-04 14:10:00,
2013-02-04 08:15:00,47.4,37.0,30.07,East,92,0.0,0.0,67,0.00,,,0.00,Wunderground v.1.15,2013-02-04 14:15:00,
2013-02-04 08:25:00,47.9,37.8,30.07,East,92,0.0,0.0,68,0.00,,,0.00,Wunderground v.1.15,2013-02-04 14:25:00,
2013-02-04 08:30:00,48.0,37.6,30.07,ENE,69,0.0,0.0,67,0.00,,,0.00,Wunderground v.1.15,2013-02-04 14:30:00,
2013-02-04 08:40:00,48.3,37.5,30.07,ENE,69,0.0,0.0,66,0.00,,,0.00,Wunderground v.1.15,2013-02-04 14:40:00,
2013-02-04 08:45:00,48.6,37.4,30.08,ENE,69,0.0,0.0,65,0.00,,,0.00,Wunderground v.1.15,2013-02-04 14:45:00,
2013-02-04 08:55:00,49.2,37.9,30.08,ENE,69,0.0,0.0,65,0.00,,,0.00,Wunderground v.1.15,2013-02-04 14:55:00,
2013-02-04 09:00:00,49.5,38.2,30.07,ENE,72,0.0,0.0,65,0.00,,,0.00,Wunderground v.1.15,2013-02-04 15:00:00,
2013-02-04 09:10:00,50.8,39.5,30.07,East,93,0.0,0.0,65,0.00,,,0.00,Wunderground v.1.15,2013-02-04 15:10:00,
2013-02-04 09:15:00,51.3,37.9,30.06,East,95,0.0,0.0,60,0.00,,,0.00,Wunderground v.1.15,2013-02-04 15:15:00,
2013-02-04 09:25:00,52.0,38.1,30.06,SE,137,0.0,0.0,59,0.00,,,0.00,Wunderground v.1.15,2013-02-04 15:25:00,
2013-02-04 09:30:00,52.8,38.0,30.08,ESE,120,0.0,0.0,57,0.00,,,0.00,Wunderground v.1.15,2013-02-04 15:30:00,
2013-02-04 09:40:00,54.2,39.3,30.08,SE,128,0.0,0.0,57,0.00,,,0.00,Wunderground v.1.15,2013-02-04 15:40:00,
2013-02-04 09:45:00,55.1,39.2,30.08,SE,128,0.0,0.0,55,0.00,,,0.00,Wunderground v.1.15,2013-02-04 15:45:00,
2013-02-04 09:55:00,55.9,38.5,30.08,SSE,165,0.0,0.0,52,0.00,,,0.00,Wunderground v.1.15,2013-02-04 15:55:00,
2013-02-04 10:00:00,56.2,38.8,30.08,SSE,164,0.0,0.0,52,0.00,,,0.00,Wunderground v.1.15,2013-02-04 16:00:00,
2013-02-04 10:10:00,56.7,39.3,30.08,East,82,0.0,0.0,52,0.00,,,0.00,Wunderground v.1.15,2013-02-04 16:10:00,
2013-02-04 10:15:00,56.7,39.3,30.07,ESE,120,0.0,0.0,52,0.00,,,0.00,Wunderground v.1.15,2013-02-04 16:15:00,
2013-02-04 10:25:00,57.0,40.5,30.07,ESE,104,0.0,0.0,54,0.00,,,0.00,Wunderground v.1.15,2013-02-04 16:25:00,
2013-02-04 10:30:00,57.0,40.5,30.07,ESE,109,0.0,0.0,54,0.00,,,0.00,Wunderground v.1.15,2013-02-04 16:30:00,
2013-02-04 10:40:00,57.6,41.5,30.07,ESE,116,0.0,0.0,55,0.00,,,0.00,Wunderground v.1.15,2013-02-04 16:40:00,
2013-02-04 10:45:00,58.0,41.9,30.07,ESE,117,0.0,0.0,55,0.00,,,0.00,Wunderground v.1.15,2013-02-04 16:45:00,
2013-02-04 10:55:00,58.6,42.5,30.07,ESE,114,0.0,0.0,55,0.00,,,0.00,Wunderground v.1.15,2013-02-04 16:55:00,
2013-02-04 11:00:00,58.9,42.8,30.07,ESE,123,0.0,0.0,55,0.00,,,0.00,Wunderground v.1.15,2013-02-04 17:00:00,
2013-02-04 11:10:00,59.5,43.3,30.07,SSE,151,0.0,0.0,55,0.00,,,0.00,Wunderground v.1.15,2013-02-04 17:10:00,
2013-02-04 11:15:00,60.1,42.9,30.07,East,96,0.0,0.0,53,0.00,,,0.00,Wunderground v.1.15,2013-02-04 17:15:00,
2013-02-04 11:25:00,60.1,42.9,30.07,SE,127,0.0,1.0,53,0.00,,,0.00,Wunderground v.1.15,2013-02-04 17:25:00,
2013-02-04 11:35:00,60.4,42.7,30.06,SSW,199,0.0,0.0,52,0.00,,,0.00,Wunderground v.1.15,2013-02-04 17:35:00,
2013-02-04 11:40:00,61.0,42.2,30.06,SSW,199,0.0,0.0,50,0.00,,,0.00,Wunderground v.1.15,2013-02-04 17:40:00,
2013-02-04 11:45:00,60.7,41.4,30.04,ESE,110,1.0,1.0,49,0.00,,,0.00,Wunderground v.1.15,2013-02-04 17:45:00,
2013-02-04 11:55:00,61.0,42.2,30.04,ESE,107,0.0,0.0,50,0.00,,,0.00,Wunderground v.1.15,2013-02-04 17:55:00,
2013-02-04 12:00:00,61.3,42.0,30.04,ESE,117,0.0,0.0,49,0.00,,,0.00,Wunderground v.1.15,2013-02-04 18:00:00,
2013-02-04 12:10:00,61.2,42.4,30.04,ESE,116,0.0,0.0,50,0.00,,,0.00,Wunderground v.1.15,2013-02-04 18:10:00,
2013-02-04 12:15:00,61.2,42.4,30.03,ESE,117,0.0,0.0,50,0.00,,,0.00,Wunderground v.1.15,2013-02-04 18:15:00,
2013-02-04 12:25:00,61.3,43.0,30.03,ESE,113,0.0,0.0,51,0.00,,,0.00,Wunderground v.1.15,2013-02-04 18:25:00,
2013-02-04 12:30:00,61.3,42.5,30.02,SE,128,0.0,0.0,50,0.00,,,0.00,Wunderground v.1.15,2013-02-04 18:30:00,
2013-02-04 12:40:00,61.5,42.7,30.02,SSE,157,0.0,0.0,50,0.00,,,0.00,Wunderground v.1.15,2013-02-04 18:40:00,
2013-02-04 12:45:00,61.6,42.8,30.02,SSE,157,0.0,0.0,50,0.00,,,0.00,Wunderground v.1.15,2013-02-04 18:45:00,
2013-02-04 12:55:00,61.8,43.0,30.02,SE,141,0.0,0.0,50,0.00,,,0.00,Wunderground v.1.15,2013-02-04 18:55:00,
2013-02-04 13:00:00,61.6,43.3,30.00,SE,143,0.0,0.0,51,0.00,,,0.00,Wunderground v.1.15,2013-02-04 19:00:00,
2013-02-04 13:10:00,61.6,43.8,30.00,SE,133,0.0,0.0,52,0.00,,,0.00,Wunderground v.1.15,2013-02-04 19:10:00,
2013-02-04 13:15:00,61.8,44.0,30.00,SE,133,0.0,0.0,52,0.00,,,0.00,Wunderground v.1.15,2013-02-04 19:15:00,
2013-02-04 13:25:00,62.1,43.7,30.00,SE,133,0.0,0.0,51,0.00,,,0.00,Wunderground v.1.15,2013-02-04 19:25:00,
2013-02-04 13:35:00,62.7,43.8,30.00,SSE,168,0.0,0.0,50,0.00,,,0.00,Wunderground v.1.15,2013-02-04 19:35:00,
2013-02-04 13:46:00,62.7,43.3,29.99,East,99,0.0,0.0,49,0.00,,,0.00,Wunderground v.1.15,2013-02-04 19:46:00,
2013-02-04 13:55:00,62.9,44.5,29.99,East,99,0.0,0.0,51,0.00,,,0.00,Wunderground v.1.15,2013-02-04 19:55:00,
2013-02-04 14:00:00,62.9,44.0,29.99,ESE,102,0.0,0.0,50,0.00,,,0.00,Wunderground v.1.15,2013-02-04 20:00:00,
2013-02-04 14:10:00,63.1,44.7,29.99,ESE,106,0.0,0.0,51,0.00,,,0.00,Wunderground v.1.15,2013-02-04 20:10:00,
2013-02-04 14:15:00,63.7,43.6,29.98,SE,130,0.0,0.0,48,0.00,,,0.00,Wunderground v.1.15,2013-02-04 20:15:00,
2013-02-04 14:25:00,63.9,44.4,29.98,SE,130,0.0,0.0,49,0.00,,,0.00,Wunderground v.1.15,2013-02-04 20:25:00,
2013-02-04 14:30:00,63.7,44.7,29.98,SE,130,0.0,0.0,50,0.00,,,0.00,Wunderground v.1.15,2013-02-04 20:30:00,
2013-02-04 14:40:00,63.5,44.0,29.98,SSW,195,0.0,0.0,49,0.00,,,0.00,Wunderground v.1.15,2013-02-04 20:40:00,
2013-02-04 14:45:00,63.4,43.4,29.98,SSW,203,0.0,0.0,48,0.00,,,0.00,Wunderground v.1.15,2013-02-04 20:45:00,
2013-02-04 14:55:00,63.4,44.4,29.98,SSW,203,0.0,0.0,50,0.00,,,0.00,Wunderground v.1.15,2013-02-04 20:55:00,
2013-02-04 15:00:00,63.2,44.8,29.98,SSE,167,0.0,0.0,51,0.00,,,0.00,Wunderground v.1.15,2013-02-04 21:00:00,
2013-02-04 15:10:00,63.2,44.2,29.98,SSE,167,0.0,0.0,50,0.00,,,0.00,Wunderground v.1.15,2013-02-04 21:10:00,
2013-02-04 15:15:00,63.2,44.8,29.98,SSE,167,0.0,0.0,51,0.00,,,0.00,Wunderground v.1.15,2013-02-04 21:15:00,
2013-02-04 15:25:00,63.5,45.0,29.98,SSE,167,0.0,0.0,51,0.00,,,0.00,Wunderground v.1.15,2013-02-04 21:25:00,
2013-02-04 15:30:00,63.7,45.2,29.97,SSE,167,0.0,0.0,51,0.00,,,0.00,Wunderground v.1.15,2013-02-04 21:30:00,
2013-02-04 15:40:00,63.7,44.7,29.97,SSE,165,0.0,0.0,50,0.00,,,0.00,Wunderground v.1.15,2013-02-04 21:40:00,
2013-02-04 15:45:00,63.4,43.9,29.97,SSE,165,0.0,0.0,49,0.00,,,0.00,Wunderground v.1.15,2013-02-04 21:45:00,
2013-02-04 15:55:00,63.2,44.2,29.97,SSE,165,0.0,0.0,50,0.00,,,0.00,Wunderground v.1.15,2013-02-04 21:55:00,
2013-02-04 16:00:00,63.1,44.2,29.96,SSE,165,0.0,0.0,50,0.00,,,0.00,Wunderground v.1.15,2013-02-04 22:00:00,
2013-02-04 16:10:00,62.9,45.0,29.96,SSE,165,0.0,0.0,52,0.00,,,0.00,Wunderground v.1.15,2013-02-04 22:10:00,
2013-02-04 16:15:00,62.7,44.8,29.96,SSE,165,0.0,0.0,52,0.00,,,0.00,Wunderground v.1.15,2013-02-04 22:15:00,
2013-02-04 16:25:00,62.6,45.7,29.96,SSE,165,0.0,0.0,54,0.00,,,0.00,Wunderground v.1.15,2013-02-04 22:25:00,
2013-02-04 16:30:00,62.6,47.1,29.96,SSE,165,0.0,0.0,57,0.00,,,0.00,Wunderground v.1.15,2013-02-04 22:30:00,
2013-02-04 16:40:00,62.0,48.0,29.96,SSE,165,0.0,0.0,60,0.00,,,0.00,Wunderground v.1.15,2013-02-04 22:40:00,
2013-02-04 16:45:00,61.5,47.5,29.96,SSE,165,0.0,0.0,60,0.00,,,0.00,Wunderground v.1.15,2013-02-04 22:45:00,
2013-02-04 16:55:00,61.0,47.9,29.96,SE,144,0.0,0.0,62,0.00,,,0.00,Wunderground v.1.15,2013-02-04 22:55:00,
2013-02-04 17:00:00,60.7,48.0,29.95,SE,144,0.0,0.0,63,0.00,,,0.00,Wunderground v.1.15,2013-02-04 23:00:00,
2013-02-04 17:10:00,60.2,48.4,29.95,SE,144,0.0,0.0,65,0.00,,,0.00,Wunderground v.1.15,2013-02-04 23:10:00,
2013-02-04 17:15:00,59.9,48.1,29.95,SE,144,0.0,0.0,65,0.00,,,0.00,Wunderground v.1.15,2013-02-04 23:15:00,
2013-02-04 17:25:00,59.6,48.2,29.95,SE,145,0.0,0.0,66,0.00,,,0.00,Wunderground v.1.15,2013-02-04 23:25:00,
2013-02-04 17:30:00,59.3,48.3,29.96,SE,145,0.0,0.0,67,0.00,,,0.00,Wunderground v.1.15,2013-02-04 23:30:00,
2013-02-04 17:40:00,59.0,48.4,29.96,SE,145,0.0,0.0,68,0.00,,,0.00,Wunderground v.1.15,2013-02-04 23:40:00,
2013-02-04 17:45:00,58.7,48.2,29.95,SE,144,0.0,0.0,68,0.00,,,0.00,Wunderground v.1.15,2013-02-04 23:45:00,
2013-02-04 17:55:00,58.3,48.6,29.95,SE,144,0.0,0.0,70,0.00,,,0.00,Wunderground v.1.15,2013-02-04 23:55:00,
2013-02-04 18:00:00,58.1,49.1,29.95,SE,144,0.0,0.0,72,0.00,,,0.00,Wunderground v.1.15,2013-02-05 00:00:00,
2013-02-04 18:10:00,57.5,49.6,29.95,SE,144,0.0,0.0,75,0.00,,,0.00,Wunderground v.1.15,2013-02-05 00:10:00,
2013-02-04 18:15:00,57.0,49.2,29.95,SE,144,0.0,0.0,75,0.00,,,0.00,Wunderground v.1.15,2013-02-05 00:15:00,
2013-02-04 18:25:00,56.7,50.3,29.95,SE,144,0.0,0.0,79,0.00,,,0.00,Wunderground v.1.15,2013-02-05 00:25:00,
2013-02-04 18:30:00,56.5,50.4,29.95,SE,144,0.0,0.0,80,0.00,,,0.00,Wunderground v.1.15,2013-02-05 00:30:00,
2013-02-04 18:40:00,55.9,50.2,29.95,SE,141,0.0,0.0,81,0.00,,,0.01,Wunderground v.1.15,2013-02-05 00:40:00,
2013-02-04 18:45:00,55.6,50.2,29.95,SE,141,0.0,0.0,82,0.00,,,0.01,Wunderground v.1.15,2013-02-05 00:45:00,
2013-02-04 18:55:00,55.3,50.2,29.95,SE,143,0.0,0.0,83,0.00,,,0.01,Wunderground v.1.15,2013-02-05 00:55:00,
2013-02-04 19:00:00,55.0,50.3,29.95,SE,143,0.0,0.0,84,0.00,,,0.01,Wunderground v.1.15,2013-02-05 01:00:00,
2013-02-04 19:10:00,54.8,50.1,29.95,SE,143,0.0,0.0,84,0.00,,,0.01,Wunderground v.1.15,2013-02-05 01:10:00,
2013-02-04 19:15:00,54.7,50.3,29.95,SE,143,0.0,0.0,85,0.00,,,0.01,Wunderground v.1.15,2013-02-05 01:15:00,
2013-02-04 19:25:00,54.8,50.7,29.95,SE,143,0.0,0.0,86,0.00,,,0.01,Wunderground v.1.15,2013-02-05 01:25:00,
2013-02-04 19:30:00,55.0,50.9,29.96,SE,143,0.0,0.0,86,0.00,,,0.01,Wunderground v.1.15,2013-02-05 01:30:00,
2013-02-04 19:40:00,54.8,51.0,29.96,SE,143,0.0,0.0,87,0.00,,,0.02,Wunderground v.1.15,2013-02-05 01:40:00,
2013-02-04 19:45:00,54.7,50.9,29.96,SE,143,0.0,0.0,87,0.00,,,0.02,Wunderground v.1.15,2013-02-05 01:45:00,
2013-02-04 19:55:00,54.5,51.0,29.96,SE,143,0.0,0.0,88,0.00,,,0.02,Wunderground v.1.15,2013-02-05 01:55:00,
2013-02-04 20:05:00,54.4,51.2,29.96,SE,143,0.0,0.0,89,0.00,,,0.02,Wunderground v.1.15,2013-02-05 02:05:00,
2013-02-04 20:10:00,54.4,51.2,29.96,SE,143,0.0,0.0,89,0.00,,,0.02,Wunderground v.1.15,2013-02-05 02:10:00,
2013-02-04 20:15:00,54.4,51.5,29.96,SE,143,0.0,0.0,90,0.00,,,0.02,Wunderground v.1.15,2013-02-05 02:15:00,
2013-02-04 20:25:00,54.4,51.5,29.96,SE,143,0.0,0.0,90,0.00,,,0.02,Wunderground v.1.15,2013-02-05 02:25:00,
2013-02-04 20:30:00,54.5,51.6,29.95,SE,140,0.0,0.0,90,0.00,,,0.02,Wunderground v.1.15,2013-02-05 02:30:00,
2013-02-04 20:40:00,54.5,51.6,29.95,SE,136,0.0,0.0,90,0.00,,,0.02,Wunderground v.1.15,2013-02-05 02:40:00,
2013-02-04 20:45:00,54.5,51.9,29.96,SE,136,0.0,0.0,91,0.00,,,0.02,Wunderground v.1.15,2013-02-05 02:45:00,
2013-02-04 20:55:00,54.5,51.9,29.96,SE,136,0.0,0.0,91,0.00,,,0.02,Wunderground v.1.15,2013-02-05 02:55:00,
2013-02-04 21:05:00,54.5,51.9,29.96,SE,136,0.0,0.0,91,0.00,,,0.02,Wunderground v.1.15,2013-02-05 03:05:00,
2013-02-04 21:10:00,54.5,51.9,29.96,SE,136,0.0,0.0,91,0.00,,,0.02,Wunderground v.1.15,2013-02-05 03:10:00,
2013-02-04 21:15:00,54.4,52.1,29.96,SE,136,0.0,0.0,92,0.00,,,0.02,Wunderground v.1.15,2013-02-05 03:15:00,
2013-02-04 21:25:00,54.4,52.1,29.96,SE,136,0.0,0.0,92,0.00,,,0.02,Wunderground v.1.15,2013-02-05 03:25:00,
2013-02-04 21:30:00,54.5,52.2,29.95,SE,136,0.0,0.0,92,0.00,,,0.02,Wunderground v.1.15,2013-02-05 03:30:00,
2013-02-04 21:40:00,54.5,52.2,29.95,SE,136,0.0,0.0,92,0.00,,,0.02,Wunderground v.1.15,2013-02-05 03:40:00,
2013-02-04 21:45:00,54.5,52.2,29.95,SE,136,0.0,0.0,92,0.00,,,0.02,Wunderground v.1.15,2013-02-05 03:45:00,
2013-02-04 21:55:00,54.5,52.2,29.95,SE,136,0.0,0.0,92,0.00,,,0.02,Wunderground v.1.15,2013-02-05 03:55:00,
2013-02-04 22:00:00,54.7,52.4,29.95,SE,136,0.0,0.0,92,0.00,,,0.02,Wunderground v.1.15,2013-02-05 04:00:00,
2013-02-04 22:10:00,54.5,52.5,29.95,SE,136,0.0,0.0,93,0.00,,,0.02,Wunderground v.1.15,2013-02-05 04:10:00,
2013-02-04 22:20:00,54.7,52.7,29.94,SE,136,0.0,0.0,93,0.00,,,0.02,Wunderground v.1.15,2013-02-05 04:20:00,
2013-02-04 22:25:00,54.7,52.7,29.94,SE,136,0.0,0.0,93,0.00,,,0.02,Wunderground v.1.15,2013-02-05 04:25:00,
2013-02-04 22:30:00,54.7,52.7,29.94,SE,136,0.0,0.0,93,0.00,,,0.02,Wunderground v.1.15,2013-02-05 04:30:00,
2013-02-04 22:40:00,54.7,52.7,29.94,SE,136,0.0,0.0,93,0.00,,,0.02,Wunderground v.1.15,2013-02-05 04:40:00,
2013-02-04 22:45:00,54.7,52.7,29.94,SE,136,0.0,0.0,93,0.00,,,0.02,Wunderground v.1.15,2013-02-05 04:45:00,
2013-02-04 22:55:00,54.7,53.0,29.94,SE,136,0.0,0.0,94,0.00,,,0.02,Wunderground v.1.15,2013-02-05 04:55:00,
2013-02-04 23:00:00,54.7,53.0,29.94,SE,136,0.0,0.0,94,0.00,,,0.02,Wunderground v.1.15,2013-02-05 05:00:00,
2013-02-04 23:10:00,54.7,53.0,29.94,SE,136,0.0,0.0,94,0.00,,,0.02,Wunderground v.1.15,2013-02-05 05:10:00,
2013-02-04 23:15:00,54.7,53.0,29.94,SE,136,0.0,0.0,94,0.00,,,0.03,Wunderground v.1.15,2013-02-05 05:15:00,
2013-02-04 23:20:00,54.7,53.0,29.94,SE,136,0.0,0.0,94,0.00,,,0.03,Wunderground v.1.15,2013-02-05 05:20:00,
2013-02-04 23:25:00,54.7,53.0,29.94,SE,136,0.0,0.0,94,0.05,,,0.04,Wunderground v.1.15,2013-02-05 05:25:00,
2013-02-04 23:30:00,54.8,53.1,29.94,SE,136,0.0,0.0,94,0.12,,,0.05,Wunderground v.1.15,2013-02-05 05:30:00,
2013-02-04 23:40:00,54.8,53.1,29.94,SE,136,0.0,0.0,94,0.19,,,0.07,Wunderground v.1.15,2013-02-05 05:40:00,
2013-02-04 23:50:00,54.8,53.4,29.93,SE,136,0.0,0.0,95,0.10,,,0.09,Wunderground v.1.15,2013-02-05 05:50:00,
2013-02-04 23:55:00,54.8,53.4,29.93,SE,136,0.0,0.0,95,0.08,,,0.09,Wunderground v.1.15,2013-02-05 05:55:00,